Location: Newark
(25.5428°S, 54.5819°W)
Time: 07:55:20
(UTC+00:00)

Envisat - Pass Details

Date: 29 July 2019
Orbit: 764 x 766 km, 98.1° (Epoch: 24 August)

Event Time Altitude Azimuth Distance (km) Brightness Sun altitude
Exits shadow 21:51:47 - 151° (SSE) 3,116 5.7 -9.4°
Reaches altitude 10° 21:54:03 10° 140° (SE) 2,322 5.0 -9.9°
Maximum altitude 21:58:23 27° 82° (E) 1,439 3.9 -10.9°
Drops below altitude 10° 22:02:39 10° 25° (NNE) 2,299 5.4 -11.8°
Sets 22:05:15 0° 13° (NNE) 3,217 6.3 -12.3°
